Time,TemperatureF,DewpointF,PressureIn,WindDirection,WindDirectionDegrees,WindSpeedMPH,WindSpeedGustMPH,Humidity,HourlyPrecipIn,Conditions,Clouds,dailyrainin,SoftwareType,DateUTC
2013-02-02 00:01:00,34.0,33.0,30.24,NW,310,0.0,-999.0,95,-99.99,,,-99.99,,2013-02-02 08:01:00,
2013-02-02 00:11:00,34.0,33.0,30.24,NW,310,0.0,-999.0,95,-99.99,,,-99.99,,2013-02-02 08:11:00,
2013-02-02 00:21:00,33.0,32.0,30.25,NW,310,0.0,-999.0,95,-99.99,,,-99.99,,2013-02-02 08:21:00,
2013-02-02 00:31:00,33.0,32.0,30.25,NW,310,0.0,-999.0,95,-99.99,,,-99.99,,2013-02-02 08:31:00,
2013-02-02 00:42:00,33.0,32.0,30.25,NW,310,0.0,-999.0,95,-99.99,,,-99.99,,2013-02-02 08:42:00,
2013-02-02 00:52:00,32.0,31.0,30.25,NW,310,0.0,-999.0,95,-99.99,,,-99.99,,2013-02-02 08:52:00,
2013-02-02 01:01:00,32.0,31.0,30.25,NW,310,0.0,-999.0,95,-99.99,,,-99.99,,2013-02-02 09:01:00,
2013-02-02 01:11:00,32.0,31.0,30.25,NW,310,0.0,-999.0,95,-99.99,,,-99.99,,2013-02-02 09:11:00,
2013-02-02 01:22:00,32.0,31.0,30.25,NW,310,0.0,-999.0,95,-99.99,,,-99.99,,2013-02-02 09:22:00,
2013-02-02 01:31:00,32.0,31.0,30.25,NW,310,0.0,-999.0,95,-99.99,,,-99.99,,2013-02-02 09:31:00,
2013-02-02 01:41:00,32.0,31.0,30.25,NW,310,0.0,-999.0,95,-99.99,,,-99.99,,2013-02-02 09:41:00,
2013-02-02 01:52:00,32.0,31.0,30.26,NW,310,0.0,-999.0,95,-99.99,,,-99.99,,2013-02-02 09:52:00,
2013-02-02 02:01:00,32.0,31.0,30.26,NW,310,0.0,-999.0,95,-99.99,,,-99.99,,2013-02-02 10:01:00,
2013-02-02 02:11:00,32.0,31.0,30.26,NW,310,0.0,-999.0,95,-99.99,,,-99.99,,2013-02-02 10:11:00,
2013-02-02 02:21:00,31.0,30.0,30.27,NW,310,0.0,-999.0,95,-99.99,,,-99.99,,2013-02-02 10:21:00,
2013-02-02 02:31:00,31.0,30.0,30.27,NW,310,0.0,-999.0,95,-99.99,,,-99.99,,2013-02-02 10:31:00,
2013-02-02 02:41:00,31.0,30.0,30.27,NW,310,0.0,-999.0,95,-99.99,,,-99.99,,2013-02-02 10:41:00,
2013-02-02 02:52:00,32.0,31.0,30.27,NW,310,0.0,-999.0,96,-99.99,,,-99.99,,2013-02-02 10:52:00,
2013-02-02 03:01:00,32.0,31.0,30.27,NW,310,0.0,-999.0,96,-99.99,,,-99.99,,2013-02-02 11:01:00,
2013-02-02 03:11:00,32.0,31.0,30.27,NW,310,0.0,-999.0,96,-99.99,,,-99.99,,2013-02-02 11:11:00,
2013-02-02 03:21:00,33.0,32.0,30.27,NW,310,0.0,-999.0,96,-99.99,,,-99.99,,2013-02-02 11:21:00,
2013-02-02 03:31:00,33.0,32.0,30.27,NW,310,0.0,-999.0,96,-99.99,,,-99.99,,2013-02-02 11:31:00,
2013-02-02 03:41:00,33.0,32.0,30.27,NW,310,0.0,-999.0,96,-99.99,,,-99.99,,2013-02-02 11:41:00,
2013-02-02 03:52:00,34.0,33.0,30.26,NW,310,0.0,-999.0,97,-99.99,,,-99.99,,2013-02-02 11:52:00,
2013-02-02 04:01:00,34.0,33.0,30.26,NW,310,0.0,-999.0,97,-99.99,,,-99.99,,2013-02-02 12:01:00,
2013-02-02 04:11:00,34.0,33.0,30.26,NW,310,0.0,-999.0,97,-99.99,,,-99.99,,2013-02-02 12:11:00,
2013-02-02 04:22:00,34.0,33.0,30.26,NW,310,0.0,-999.0,97,-99.99,,,-99.99,,2013-02-02 12:22:00,
2013-02-02 04:32:00,34.0,33.0,30.26,NW,310,0.0,-999.0,97,-99.99,,,-99.99,,2013-02-02 12:32:00,
2013-02-02 04:42:00,34.0,33.0,30.26,NW,310,0.0,-999.0,97,-99.99,,,-99.99,,2013-02-02 12:42:00,
2013-02-02 04:51:00,35.0,34.0,30.26,NW,310,0.0,-999.0,97,-99.99,,,-99.99,,2013-02-02 12:51:00,
2013-02-02 04:52:00,34.0,33.0,30.26,NW,310,0.0,-999.0,97,-99.99,,,-99.99,,2013-02-02 12:52:00,
2013-02-02 05:02:00,34.0,33.0,30.26,NW,310,0.0,-999.0,97,-99.99,,,-99.99,,2013-02-02 13:02:00,
2013-02-02 05:11:00,34.0,33.0,30.26,NW,310,0.0,-999.0,97,-99.99,,,-99.99,,2013-02-02 13:11:00,
2013-02-02 05:21:00,35.0,34.0,30.26,NW,310,0.0,-999.0,97,-99.99,,,-99.99,,2013-02-02 13:21:00,
2013-02-02 05:32:00,35.0,34.0,30.26,NW,310,0.0,-999.0,97,-99.99,,,-99.99,,2013-02-02 13:32:00,
2013-02-02 05:42:00,35.0,34.0,30.26,NW,310,0.0,-999.0,97,-99.99,,,-99.99,,2013-02-02 13:42:00,
2013-02-02 12:21:00,40.0,39.0,30.29,SSE,162,2.0,-999.0,98,-99.99,,,-99.99,,2013-02-02 20:21:00,
2013-02-02 12:32:00,40.0,39.0,30.29,ESE,117,0.0,-999.0,98,-99.99,,,-99.99,,2013-02-02 20:32:00,
2013-02-02 12:41:00,40.0,39.0,30.29,ESE,117,0.0,-999.0,98,-99.99,,,-99.99,,2013-02-02 20:41:00,
2013-02-02 12:52:00,41.0,40.0,30.28,ESE,123,0.0,-999.0,98,-99.99,,,-99.99,,2013-02-02 20:52:00,
2013-02-02 13:01:00,41.0,40.0,30.28,ESE,123,0.0,-999.0,98,-99.99,,,-99.99,,2013-02-02 21:01:00,
2013-02-02 13:11:00,41.0,40.0,30.28,ESE,123,0.0,-999.0,98,-99.99,,,-99.99,,2013-02-02 21:11:00,
2013-02-02 13:21:00,41.0,40.0,30.27,NNW,347,0.0,-999.0,97,-99.99,,,-99.99,,2013-02-02 21:21:00,
2013-02-02 13:32:00,41.0,40.0,30.27,South,189,0.0,-999.0,97,-99.99,,,-99.99,,2013-02-02 21:32:00,
2013-02-02 13:42:00,41.0,40.0,30.27,South,189,0.0,-999.0,97,-99.99,,,-99.99,,2013-02-02 21:42:00,
2013-02-02 13:52:00,42.0,41.0,30.27,ESE,109,0.0,-999.0,97,-99.99,,,-99.99,,2013-02-02 21:52:00,
2013-02-02 14:01:00,42.0,41.0,30.26,SSE,160,0.0,-999.0,96,-99.99,,,-99.99,,2013-02-02 22:01:00,
2013-02-02 14:11:00,42.0,41.0,30.26,SSE,160,0.0,-999.0,96,-99.99,,,-99.99,,2013-02-02 22:11:00,
2013-02-02 14:21:00,42.0,41.0,30.26,SSE,160,0.0,-999.0,95,-99.99,,,-99.99,,2013-02-02 22:21:00,
2013-02-02 14:32:00,42.0,41.0,30.26,SSE,160,0.0,-999.0,95,-99.99,,,-99.99,,2013-02-02 22:32:00,
2013-02-02 14:41:00,42.0,41.0,30.26,SSE,160,0.0,-999.0,95,-99.99,,,-99.99,,2013-02-02 22:41:00,
2013-02-02 14:52:00,43.0,41.0,30.26,SE,130,0.0,-999.0,93,-99.99,,,-99.99,,2013-02-02 22:52:00,
2013-02-02 15:01:00,43.0,41.0,30.26,SE,132,0.0,-999.0,92,-99.99,,,-99.99,,2013-02-02 23:01:00,
2013-02-02 15:11:00,43.0,41.0,30.26,SE,132,0.0,-999.0,92,-99.99,,,-99.99,,2013-02-02 23:11:00,
2013-02-02 15:21:00,43.0,40.0,30.26,SE,132,0.0,-999.0,90,-99.99,,,-99.99,,2013-02-02 23:21:00,
2013-02-02 15:32:00,43.0,40.0,30.26,SE,132,0.0,-999.0,90,-99.99,,,-99.99,,2013-02-02 23:32:00,
2013-02-02 15:41:00,43.0,40.0,30.26,SE,132,0.0,-999.0,90,-99.99,,,-99.99,,2013-02-02 23:41:00,
2013-02-02 15:52:00,43.0,40.0,30.26,SE,132,0.0,-999.0,90,-99.99,,,-99.99,,2013-02-02 23:52:00,
2013-02-02 16:01:00,43.0,40.0,30.26,WNW,284,0.0,-999.0,90,-99.99,,,-99.99,,2013-02-03 00:01:00,
2013-02-02 16:11:00,43.0,40.0,30.26,WNW,284,0.0,-999.0,90,-99.99,,,-99.99,,2013-02-03 00:11:00,
2013-02-02 16:21:00,43.0,40.0,30.25,WNW,284,0.0,-999.0,90,-99.99,,,-99.99,,2013-02-03 00:21:00,
2013-02-02 16:31:00,43.0,40.0,30.25,WNW,284,0.0,-999.0,90,-99.99,,,-99.99,,2013-02-03 00:31:00,
2013-02-02 16:41:00,43.0,40.0,30.25,WNW,284,0.0,-999.0,90,-99.99,,,-99.99,,2013-02-03 00:41:00,
2013-02-02 16:52:00,43.0,40.0,30.25,WNW,284,0.0,-999.0,90,-99.99,,,-99.99,,2013-02-03 00:52:00,
2013-02-02 17:01:00,43.0,41.0,30.25,WNW,284,0.0,-999.0,91,-99.99,,,-99.99,,2013-02-03 01:01:00,
2013-02-02 17:11:00,43.0,41.0,30.24,WNW,284,0.0,-999.0,91,-99.99,,,-99.99,,2013-02-03 01:11:00,
2013-02-02 17:21:00,43.0,41.0,30.24,WNW,284,0.0,-999.0,91,-99.99,,,-99.99,,2013-02-03 01:21:00,
2013-02-02 17:32:00,43.0,41.0,30.25,WNW,284,0.0,-999.0,91,-99.99,,,-99.99,,2013-02-03 01:32:00,
2013-02-02 17:41:00,43.0,41.0,30.25,WNW,284,0.0,-999.0,91,-99.99,,,-99.99,,2013-02-03 01:41:00,
2013-02-02 17:52:00,43.0,41.0,30.25,WNW,284,0.0,-999.0,91,-99.99,,,-99.99,,2013-02-03 01:52:00,
2013-02-02 18:01:00,43.0,41.0,30.25,WNW,284,0.0,-999.0,91,-99.99,,,-99.99,,2013-02-03 02:01:00,